Regional Weather Roundup
Issued by NWS

Home | Current Version | Previous Version | Text Only | Print | Product List | Glossary Off
Versions: 1 2 3 4 5 6 7 8 9 10 11 12 13 14 15 16 17 18 19 20 21 22 23 24 25 26 27 28 29 30 31 32 33 34 35 36 37 38 39 40 41 42 43 44 45 46 47 48 49 50

000
ASUS44 KMEG 241710
RWRTN
TENNESSEE HOURLY STATE WEATHER ROUNDUP
NATIONAL WEATHER SERVICE MEMPHIS TN
1200 PM CDT THU JUL 24 2014

TNZ002-004-019-021-049-052-054-088>092-241800-
WEST TENNESSEE

CITY           SKY/WX    TMP DP  RH WIND       PRES   REMARKS
MEMPHIS INTL   SUNNY     81  59  47 N13       30.07S
NWS MEMPHIS      N/A     80 N/A N/A MISG        N/A
JACKSON        SUNNY     77  58  51 N6        30.05F
DYERSBURG      SUNNY     75  55  50 NW7       30.08S
UNION CITY     MOSUNNY   73  63  68 N10       30.06S
PARIS          PTSUNNY   73  62  68 N5        30.06S
LEXINGTON      MOSUNNY   79  64  61 VRB5      30.03S
$$

TNZ008-025-027-028-033-062-065-066-241800-
NORTH MIDDLE TENNESSEE

CITY           SKY/WX    TMP DP  RH WIND       PRES   REMARKS
NASHVILLE      CLOUDY    76  66  71 NW10      30.03S
DICKSON        MOSUNNY   75  64  69 N8        30.04S
PORTLAND       PTSUNNY   73  66  78 NW8       30.03F
CLARKSVILLE    PTSUNNY   78  63  59 NE10      30.04F
LEBANON        CLOUDY    74  67  78 N7        30.02S
SMYRNA         PTSUNNY   84  69  60 N14       30.02F
MURFREESBORO   MOSUNNY   79  68  69 VRB7      30.01
COOKEVILLE     MOSUNNY   82  72  69 W3        30.01F
LIVINGSTON       N/A     75  68  79 VRB7      30.03S
GALLATIN       CLOUDY    74  68  81 NW8       30.04S
CROSSVILLE     PTSUNNY   76  66  71 W7        30.05F
$$

TNZ061-075-076-078-094-096-097-241800-
SOUTH MIDDLE TENNESSEE

CITY           SKY/WX    TMP DP  RH WIND       PRES   REMARKS
LEWISBURG      MOSUNNY   80  69  69 NW7       30.01F
FAYETTEVILLE   PTSUNNY   75  68  78 NW8       30.03S
TULLAHOMA      PTSUNNY   75  70  83 NW6       30.04F
WINCHESTER     MOSUNNY   81  70  69 W7        30.02S
MCMINNVILLE    MOSUNNY   79  73  83 VRB6      30.02F
COLUMBIA       MOSUNNY   81  70  69 N7        30.01F
SHELBYVILLE    MOSUNNY   82  72  69 CALM      30.02F
$$

TNZ017-018-042-046-047-241800-
NORTHEAST TENNESSEE

CITY           SKY/WX    TMP DP  RH WIND       PRES   REMARKS
TRI CITIES     MOSUNNY   82  67  60 W10       29.99S
ELIZABETHTON   LGT RAIN  75  70  83 VRB3      30.00S
$$

TNZ012-013-036-069-073-074-241800-
CENTRAL EAST TENNESSEE

CITY           SKY/WX    TMP DP  RH WIND       PRES   REMARKS
KNOXVILLE      PTSUNNY   80  69  69 W8        29.98S
OAK RIDGE      MOSUNNY   83  68  60 VRB7      29.99F
GATLINBURG     MOSUNNY   81  70  69 W8        29.97F
MORRISTOWN     SUNNY     82  70  65 W9        29.99F
$$

TNZ083-085-099-241800-
SOUTHEAST TENNESSEE

CITY           SKY/WX    TMP DP  RH WIND       PRES   REMARKS
CHATTANOOGA    LGT RAIN  79  70  74 SW5       30.00S
$$

SKY/WX REPORTED AS FAIR MEANS FEW OR NO CLOUDS BELOW
12 THOUSAND FEET.



USA.gov is the U.S. government's official web portal to all federal, state and local government web resources and services.